Location: Newark
(30.1000°N, 109.4667°E)
Time: 20:22:09
(UTC+00:00)

SR - Pass Details

Date: 24 February 2020
Orbit: 578 x 877 km, 66.7° (Epoch: 09 April)

Event Time Altitude Azimuth Distance (km) Brightness Sun altitude
Rises 07:47:28 0° 228° (SW) 3,418 ? 32.7°
Reaches altitude 10° 07:50:10 10° 238° (WSW) 2,505 ? 32.2°
Maximum altitude 07:55:23 33° 301° (WNW) 1,434 ? 31.3°
Drops below altitude 10° 08:00:38 10° 4° (N) 2,515 ? 30.4°
Sets 08:03:21 0° 14° (NNE) 3,434 ? 29.9°
